Regional Weather Roundup
Issued by NWS

Home | Current Version | Previous Version | Text Only | Print | Product List | Glossary On
Versions: 1 2 3 4 5 6 7 8 9 10 11 12 13 14 15 16 17 18 19 20 21 22 23 24 25 26 27 28 29 30 31 32 33 34 35 36 37 38 39 40 41 42 43 44 45 46 47 48 49 50
000
ASUS43 KLMK 050810
RWRKY
KENTUCKY REGIONAL WEATHER ROUNDUP
NATIONAL WEATHER SERVICE LOUISVILLE KY
400 AM EDT SUN JUL 05 2015

NOTE "FAIR" INDICATES FEW OR NO CLOUDS BELOW 12,000 FEET
WITH NO SIGNIFICANT WEATHER AND/OR OBSTRUCTIONS TO VISIBILITY.

KYZ001>023-026-027-061>063-070>075-050900-
WESTERN AND SOUTH CENTRAL KENTUCKY

CITY           SKY/WX    TMP DP  RH WIND       PRES   REMARKS
PADUCAH        MOCLDY    68  66  93 W3        30.02S FOG
HENDERSON      CLOUDY    70  66  88 NW3       30.00F
OWENSBORO      CLOUDY    72  70  93 CALM      30.02S FOG
HOPKINSVILLE   CLOUDY    70  70 100 W6        30.02R
BOWLING GREEN  LGT RAIN  72  68  87 SE3       30.01R
GLASGOW        CLOUDY    69  69 100 CALM      30.02R
$$

KYZ024-025-028>034-038-045-046-053-050900-
NORTH CENTRAL KENTUCKY

CITY           SKY/WX    TMP DP  RH WIND       PRES   REMARKS
LOUISVILLE/SDF CLOUDY    74  67  78 CALM      30.01S
LOUISVILLE/LOU CLOUDY    73  67  81 CALM      30.02S
FORT KNOX      CLOUDY    69  68  94 NE1       30.00S FOG
$$

KYZ035>037-039>044-047>052-055>060-089>105-050900-
NORTHEAST KENTUCKY

CITY           SKY/WX    TMP DP  RH WIND       PRES   REMARKS
LEXINGTON      CLOUDY    70  66  87 E5        30.04S
COVINGTON      CLOUDY    68  60  75 E3        30.06S
FRANKFORT      CLOUDY    69  66  90 E5        30.03S FOG
$$

KYZ054-064>069-076>088-106>120-050900-
SOUTHEAST KENTUCKY

CITY           SKY/WX    TMP DP  RH WIND       PRES   REMARKS
JACKSON        CLOUDY    69  67  93 CALM      30.05F
LONDON         HVY RAIN  69  64  84 S12       30.06R
SOMERSET       RAIN      66  66 100 CALM      30.05F
MIDDLESBORO    LGT RAIN  67  67  99 CALM      30.07F
MONTICELLO     CLOUDY    69  69 100 CALM      30.06F FOG
$$



USA.gov is the U.S. government's official web portal to all federal, state and local government web resources and services.